Other Public Products
Issued by NWS Charleston, SC

Current Version | Previous Version | Text Only | Print | Product List | Glossary On
Versions: 1 2 3 4 5 6 7 8 9 10 11 12 13 14 15 16 17 18 19 20 21 22 23 24 25 26 27 28 29 30 31 32 33 34 35 36 37 38 39 40 41 42 43 44 45 46 47 48 49 50
000 FPUS82 KCHS 202212 OPUCHS TEST...KCHS/KSAV Gateway Observations...TEST National Weather Service Charleston SC 600 PM EDT SUN MAY 20 2018 NOTE: "fair" indicates few or no clouds below 12,000 feet with no significant weather and/or obstructions to visibility. SCZ050-WAZ558-NCZ071-TXZ119-213-PAZ071-DCZ001-FLZ074-172-MI076- NYZ176-178-MAZ016-IL014-TNZ027-NJZ106-GAZ044-MD014-202300- ...Gateway Observations for Charleston International... CITY SKY/WX TMP DP RH WIND PRES REMARKS Chas Airport CLOUDY 78 68 71 SW8 30.13S Seattle CLOUDY 65 53 65 S5 30.05F Charlotte PTSUNNY 80 70 71 S14 30.12R Dallas DFW CLOUDY 79 64 60 S6 29.98F Dallas Love CLOUDY 81 65 58 W6 29.99S Philladelphia PTSUNNY 82 63 52 NW14 29.98R Wash National FAIR 89 62 40 NW12G17 29.99S Baltimore PTSUNNY 85 63 47 W12 29.98R Miami CLOUDY 79 74 84 E10 30.02F Detroit CLOUDY 61 52 72 E7 30.16F Newark PTSUNNY 81 62 52 W15G22 29.94R Laguardia PTSUNNY 77 60 55 NW13 29.93R J F K PTSUNNY 80 63 55 NW15 29.94R Boston Logan CLOUDY 77 64 64 NW10 29.86R Ft. Lauderdale CLOUDY 79 75 87 SE16 30.02S Chicago O`Hare CLOUDY 49 42 77 N15 30.16F Chicago Midway CLOUDY 51 44 77 NE13 30.17F Houston Bush PTSUNNY 78 75 90 SE9 29.96S Houston Hobby PTSUNNY 84 72 67 SE15 29.94F Nashville PTSUNNY 86 67 52 E12 30.04F THUNDER Atlanta CLOUDY 80 70 71 N15 30.09R $$ GAZ044-118-TXZ119-213-NCZ071-DCZ001-MDZ014-506-PAZ021-071-NJZ106- NYZ176-178-MAZ106-OHZ011-021-055-MIZ076-KYZ091-ILZ014-INZ047- MNZ060-ONZ431-202300- ...Gateway Observations for Savannah International... CITY SKY/WX TMP DP RH WIND PRES REMARKS Savannah Arpt LGT RAIN 74 70 87 S7 30.16R Atlanta CLOUDY 80 70 71 N15 30.09R Charlotte PTSUNNY 80 70 71 S14 30.12R Dallas DFW CLOUDY 79 64 60 S6 29.98F Houston Bush PTSUNNY 78 75 90 SE9 29.96S Wash National FAIR 89 62 40 NW12G17 29.99S Wash Dulles PTSUNNY 85 64 49 W10 29.99F Baltimore PTSUNNY 85 63 47 W12 29.98R Philadelphia PTSUNNY 82 63 52 NW14 29.98R Newark PTSUNNY 81 62 52 W15G22 29.94R Laguardia PTSUNNY 77 60 55 NW13 29.93R J F K PTSUNNY 80 63 55 NW15 29.94R Boston CLOUDY 77 64 64 NW10 29.86R Pittsburg FAIR 72 59 63 N13 30.12R Akron FAIR 71 54 54 CALM 30.14S Cleveland FAIR 63 53 70 VRB3 30.18S Cincinnati FAIR 85 62 46 W6 30.05F Columbus FAIR 78 60 53 MISG 30.07F Detroit CLOUDY 61 52 72 E7 30.16F Chicago O`Hare CLOUDY 49 42 77 N15 30.16F Minneapolis FAIR 72 31 22 E7 30.14F Indianapolis PTSUNNY 83 63 50 N10 30.07F Toronto Canada MOSUNNY 66 48 52 N14 30.10R $$

USA.gov is the U.S. government's official web portal to all federal, state and local government web resources and services.